Location: ??????
(42.0089°N, 44.3281°E)
Time: 01:51:04
(UTC+00:00)

SKYMED 2 - Pass Details

Date: 21 May 2022
Orbit: 621 x 623 km, 97.9° (Epoch: 01 July)

Event Time Altitude Azimuth Distance (km) Brightness Sun altitude
Rises 00:45:36 0° 112° (ESE) 2,898 7.5 -8.8°
Reaches altitude 10° 00:49:27 10° 76° (ENE) 1,998 7.4 -8.3°
Maximum altitude 00:50:36 11° 61° (ENE) 1,937 7.7 -8.1°
Drops below altitude 10° 00:51:45 10° 45° (NE) 2,002 7.9 -7.9°
Sets 00:55:37 0° 10° (N) 2,915 7.8 -7.3°
